GW4358 Weather Reports


time (UTC)temp
C
wind
direction
speed
KPH
gust
KPH
rain 1hr
cm
rain 24hr
cm
rain mn
cm
humidity
%
barometer
mb
20260906114518 -39 55 0.0 0.0 0.00 0.00 0.00 1016.0
20260906113020 -39 55 0.0 0.0 0.00 0.00 0.00 1016.1
20260906111510 -40 96 0.0 0.0 0.00 0.00 0.00 1015.9
20260906110004 -40 96 0.0 0.0 0.00 0.00 0.00 1015.8
20260906104600 -41 92 0.0 0.0 0.00 0.00 0.00 1015.4
20260906103056 -41 76 0.0 0.0 0.00 0.00 0.00 1015.3
20260906101552 -42 69 0.0 0.0 0.00 0.00 0.00 1015.2
20260906100047 -42 104 0.0 0.0 0.00 0.00 0.00 1014.7
20260906094544 -43 182 0.0 0.0 0.00 0.00 0.00 1014.5
20260906093041 -43 71 0.0 0.0 0.00 0.00 0.00 1014.8
20260906091536 -44 95 0.0 0.0 0.00 0.00 0.00 1014.7
20260906090030 -45 94 0.0 0.0 0.00 0.00 0.00 1014.3
20260906084542 -45 239 0.0 3.2 0.00 0.00 0.00 1014.1
20260906083026 -46 243 0.0 0.0 0.00 0.00 0.00 1013.7
20260906081517 -47 243 0.0 0.0 0.00 0.00 0.00 1013.7
20260906080014 -48 243 0.0 0.0 0.00 0.00 0.00 1013.5
20260906074508 -50 243 0.0 0.0 0.00 0.00 0.00 1013.6
20260906073002 -51 243 0.0 0.0 0.00 0.00 0.00 1013.7
20260906071603 -52 243 0.0 1.6 0.00 0.00 0.00 1013.6
20260906070056 -54 243 0.0 0.0 0.00 0.00 0.00 1013.4
20260906064550 -55 244 0.0 0.0 0.00 0.00 0.00 1013.4
20260906063053 -56 244 0.0 0.0 0.00 0.00 0.00 1013.2
20260906061541 -59 243 0.0 0.0 0.00 0.00 0.00 1013.1
20260906060037 -60 243 0.0 0.0 0.00 0.00 0.00 1013.0
20260906054532 -61 243 0.0 0.0 0.00 0.00 0.00 1013.0
20260906053030 -64 243 0.0 0.0 0.00 0.00 0.00 1013.3
20260906051525 -65 244 0.0 0.0 0.00 0.00 0.00 1013.4
20260906050022 -66 243 0.0 0.0 0.00 0.00 0.00 1013.3
20260906044515 -67 242 0.0 6.4 0.00 0.00 0.00 1013.2
20260906043010 -67 212 0.0 4.8 0.00 0.00 0.00 1013.2
20260906041506 -67 63 0.0 0.0 0.00 0.00 0.00 1013.0
20260906040001 -67 63 0.0 0.0 0.00 0.00 0.00 1012.9
20260906034557 -67 63 0.0 0.0 0.00 0.00 0.00 1012.8
20260906033054 -67 63 0.0 0.0 0.00 0.00 0.00 1012.9
20260906031549 -67 63 0.0 0.0 0.00 0.00 0.00 1012.8
20260906030044 -67 63 0.0 0.0 0.00 0.00 0.00 1012.6
20260906024551 -67 63 0.0 0.0 0.00 0.00 0.00 1012.4
20260906023036 -67 63 0.0 0.0 0.00 0.00 0.00 1012.3
20260906021531 -67 63 0.0 0.0 0.00 0.00 0.00 1012.0
20260906020027 -67 63 0.0 0.0 0.00 0.00 0.00 1011.6
20260906014539 -67 63 0.0 0.0 0.00 0.00 0.00 1011.4
20260906013018 -67 63 0.0 0.0 0.00 0.00 0.00 1011.5
20260906011526 -67 63 0.0 0.0 0.00 0.00 0.00 1011.2
20260906010009 -67 63 0.0 0.0 0.00 0.00 0.00 1011.0
20260906004505 -67 63 0.0 0.0 0.00 0.00 0.00 1010.8
20260906003113 -67 63 0.0 0.0 0.00 0.00 0.00 1010.7
20260906001556 -67 63 0.0 0.0 0.00 0.00 0.00 1010.8
20260906000059 -67 63 0.0 0.0 0.00 0.00 0.00 1010.7
20260905234548 -67 63 0.0 0.0 0.00 0.00 0.00 1010.8
20260905233043 -67 63 0.0 0.0 0.00 0.00 0.00 1010.8
20260905231540 -67 63 0.0 0.0 0.00 0.00 0.00 1010.6
20260905230033 -67 63 0.0 0.0 0.00 0.00 0.00 1010.5
20260905224533 -67 63 0.0 0.0 0.00 0.00 0.00 1010.4
20260905223026 -67 63 0.0 0.0 0.00 0.00 0.00 1010.5
20260905221521 -67 63 0.0 0.0 0.00 0.00 0.00 1010.4
20260905220022 -67 63 0.0 0.0 0.00 0.00 0.00 1010.6
20260905214511 -67 63 0.0 0.0 0.00 0.00 0.00 1010.6
20260905213009 -67 59 0.0 0.0 0.00 0.00 0.00 1010.7
20260905211503 -67 52 0.0 0.0 0.00 0.00 0.00 1010.8
20260905210059 -67 69 0.0 4.8 0.00 0.00 0.00 1011.0
20260905204601 -67 94 0.0 1.6 0.00 0.00 0.00 1011.1
20260905203056 -61 104 0.0 0.0 0.00 0.00 0.00 1011.2
20260905201546 -56 111 0.0 0.0 0.00 0.00 0.00 1011.4
20260905200052 -47 72 0.0 3.2 0.00 0.00 0.00 1011.7
20260905194545 -43 77 0.0 0.0 0.00 0.00 0.00 1012.0
20260905193033 -40 38 0.0 1.6 0.00 0.00 0.00 1012.2
20260905191529 -37 86 0.0 0.0 0.00 0.00 0.00 1012.6
20260905190029 -35 140 0.0 1.6 0.00 0.00 0.00 1012.8
20260905184520 -33 81 0.0 1.6 0.00 0.00 0.00 1013.0
20260905183015 -31 298 0.0 3.2 0.00 0.00 0.00 1013.3
20260905181511 -28 55 0.0 0.0 0.00 0.00 0.00 1013.4
20260905180007 -27 96 0.0 1.6 0.00 0.00 0.00 1013.6
20260905174501 -26 107 0.0 0.0 0.00 0.00 0.00 1013.7
20260905173058 -24 100 0.0 0.0 0.00 0.00 0.00 1013.8
20260905171554 -22 89 0.0 0.0 0.00 0.00 0.00 1014.1
20260905170055 -20 89 0.0 0.0 0.00 0.00 0.00 1014.3
20260905164545 -18 57 0.0 0.0 0.00 0.00 0.00 1014.7
20260905163040 -17 49 0.0 0.0 0.00 0.00 0.00 1015.0
20260905161536 -15 50 0.0 0.0 0.00 0.00 0.00 1015.2
20260905160040 -13 355 0.0 0.0 0.00 0.00 0.00 1015.4
20260905154527 -12 311 0.0 0.0 0.00 0.00 0.00 1015.4
20260905153022 -11 219 0.0 0.0 0.00 0.00 0.00 1015.5
20260905151519 -11 215 0.0 0.0 0.00 0.00 0.00 1015.6
20260905150013 -10 215 0.0 0.0 0.00 0.00 0.00 1015.7
20260905144509 -11 215 0.0 0.0 0.00 0.00 0.00 1015.7
20260905143005 -11 201 0.0 0.0 0.00 0.00 0.00 1015.8
20260905141601 -11 201 0.0 0.0 0.00 0.00 0.00 1015.8
20260905140057 -12 202 0.0 0.0 0.00 0.00 0.00 1016.1
20260905134557 -12 202 0.0 0.0 0.00 0.00 0.00 1016.1
20260905133047 -13 202 0.0 0.0 0.00 0.00 0.00 1016.2
20260905131549 -14 201 0.0 0.0 0.00 0.00 0.00 1016.3
20260905130039 -15 202 0.0 0.0 0.00 0.00 0.00 1016.4
20260905124539 -15 202 0.0 0.0 0.00 0.00 0.00 1016.4
20260905123029 -15 202 0.0 1.6 0.00 0.00 0.00 1016.1
20260905121525 -16 202 0.0 0.0 0.00 0.00 0.00 1016.2
20260905120021 -16 202 0.0 0.0 0.00 0.00 0.00 1016.2